Weather Roundup
Issued by NWS Springfield, MO

Home | Current Version | Previous Version | Text Only | Print | Product List | Glossary On
Versions: 1 2 3 4 5 6 7 8 9 10 11 12 13 14 15 16 17 18 19 20 21 22 23 24 25 26 27 28 29 30 31 32 33 34 35 36 37 38 39 40 41 42 43 44 45 46 47 48 49 50
000
NZUS99 KSGF 230607
HRRSGF

HOURLY WEATHER
NATIONAL WEATHER SERVICE SPRINGFIELD MO
100 AM CDT SAT AUG 23 2014

......SGF CWA......

CITY           SKY/WX    TMP DP  RH WIND       PRES   REMARKS
SPRINGFIELD    FAIR      79  71  76 S8        29.99S
6HR MIN TEMP:  77; 6HR MAX TEMP:  94;

JOPLIN         FAIR      82  70  66 S13       29.96F
6HR MIN TEMP:  82; 6HR MAX TEMP:  94;

WEST PLAINS    FAIR      78  70  76 SW5       30.02S
6HR MIN TEMP:  78; 6HR MAX TEMP:  89;

ROLLA          FAIR      78  69  73 S9        29.96S
6HR MIN TEMP:  78; 6HR MAX TEMP:  89;

OSAGE BEACH    FAIR      79  70  73 S3        29.97R
BRANSON        FAIR      79  73  83 S5        30.02S

......SURROUNDING SGF CWA......

CITY           SKY/WX    TMP DP  RH WIND       PRES   REMARKS
CHANUTE        FAIR      81  71  71 S10       29.93S
PARSONS        FAIR      81  70  69 S3        29.95R
COFFEYVILLE    FAIR      81  70  69 S8        29.93S
EMPORIA        FAIR      77  71  82 S13       29.91S
GROVE OK       FAIR      81  72  74 S6        29.98S
ROGERS AR      FAIR      80  72  76 S7        30.03R
SILOAM SPRINGS FAIR      79  68  69 S8        30.02S
HARRISON AR    FAIR      78  74  87 S5        30.03R
NEAR YELLVILLE FAIR      81  70  69 CALM      29.99S

......KANSAS AND MISSOURI......

CITY           SKY/WX    TMP DP  RH WIND       PRES   REMARKS
KANSAS CTY INT MOCLDY    81  70  69 SE7       29.92F
DOWNTOWN KC    FAIR      82  69  64 CALM      29.91S
COLUMBIA       FAIR      79  76  90 CALM      29.95R
SEDALIA        FAIR      79  75  87 S5        29.96R
ST JOSEPH      FAIR      80  76  87 SE5       29.90F
ST LOUIS       MOCLDY    82  78  88 CALM      29.94S HX  91
SPIRIT OF STL  FAIR      78  76  93 CALM      29.92S
KIRKSVILLE     FAIR      77  75  93 S3        29.96S FOG
WICHITA        FAIR      82  65  56 S13       29.89S
TOPEKA         FAIR      79  74  84 E5        29.89F
OLATHE         FAIR      75  69  81 SE6       29.92F

......TENNESSEE......

CITY           SKY/WX    TMP DP  RH WIND       PRES   REMARKS
MEMPHIS        FAIR      80  72  76 S6        30.00F
NASHVILLE      FAIR      77  74  90 S3        30.02S

......ARKANSAS.......

CITY           SKY/WX    TMP DP  RH WIND       PRES   REMARKS
FAYETTEVILLE   FAIR      76  73  91 S3        30.02S
FT SMITH       FAIR      80  74  81 E5        29.97S
LITTLE ROCK    FAIR      80  75  84 CALM      29.99S

......OKLAHOMA.......

CITY           SKY/WX    TMP DP  RH WIND       PRES   REMARKS
TULSA          FAIR      85  70  60 S9        29.93R
PONCA CITY     FAIR      85  63  47 S7        29.91S
MCALESTER      FAIR      81  69  67 S7        29.97S
OKLAHOMA CITY  FAIR      79  61  53 S10       29.94F

......IOWA............

CITY           SKY/WX    TMP DP  RH WIND       PRES   REMARKS
DES MOINES     FAIR      78  75  90 NE3       29.93S
QUAD CITIES    MOCLDY    76  73  91 E6        29.93F

......ILLINOIS........

CITY           SKY/WX    TMP DP  RH WIND       PRES   REMARKS
QUINCY         FAIR      78  76  93 SE6       29.94F
CHICAGO        MOCLDY    77  70  79 CALM      29.96F




USA.gov is the U.S. government's official web portal to all federal, state and local government web resources and services.